Home   Weather   Bolton   Past weeks

Flag for United Kingdom Past Weather in Bolton, England, United Kingdom — Yesterday and Last 2 Weeks

Now
63 °F

Partly sunny.


Feels Like: 63 °F
Forecast: 54 / 68 °F
Wind: 12 mph from Northwest

Location: Manchester Airport

Current Time: Sep 27, 2016 at 4:43:51 PM

Latest Report: Sep 27, 2016 at 3:50 PM


Visibility: N/A

Pressure: 30.12 "Hg

Humidity: 83%

Dew Point: 57 °F

Location of BoltonLocation

Past Weather in Bolton — Graph

°F

Bolton Temperature Yesterday

Maximum temperature yesterday: 57 °F (at 1:50 PM)
Minimum temperature yesterday: 50 °F (at 3:20 AM)
Average temperature yesterday: 54 °F

High & Low Weather Summary for the Past Weeks

 TemperatureHumidityPressure
High79 °F (Sep 14, 2:50 PM)100% (Sep 13, 6:20 PM)30.24 "Hg (Sep 13, 6:20 PM)
Low45 °F (Sep 18, 5:50 AM)52% (Sep 22, 3:20 PM)29.68 "Hg (Sep 25, 1:50 AM)
Average60 °F82%30.01 "Hg
* Reported Sep 12 3:20 PM — Sep 27 3:20 PM, Bolton, Weather by CustomWeather, © 2016

Note: Actual official high and low records may vary slightly from our data, if they occured in-between our weather recording intervals... More about our weather records

Advertising

Bolton Weather History for the Previous 24 Hours

Scroll right to see more
 ConditionsComfort  
Time TempWeatherWind HumidityBarometerVisibility
3:20 PM
Tue, Sep 27
64 °FPartly sunny.13 mph83%30.09 "HgN/A
2:50 PM64 °FScattered clouds.12 mph88%30.09 "HgN/A
2:20 PM66 °FBroken clouds.10 mph83%30.07 "HgN/A
1:50 PM64 °FBroken clouds.8 mph94%30.07 "HgN/A
1:20 PM63 °FLight rain. Cloudy.12 mph94%30.07 "Hg5 mi
12:50 PM64 °FBroken clouds.14 mph83%30.07 "HgN/A
12:20 PM63 °FBroken clouds.14 mph88%30.04 "HgN/A
11:50 AM63 °FBroken clouds.16 mph88%30.04 "HgN/A
11:20 AM63 °FScattered clouds.16 mph88%30.04 "HgN/A
10:50 AM61 °FScattered clouds.14 mph88%30.04 "HgN/A
10:20 AM59 °FBroken clouds.15 mph94%30.04 "HgN/A
9:50 AM59 °FBroken clouds.15 mph88%30.04 "HgN/A
9:20 AM59 °FBroken clouds.14 mph88%30.01 "HgN/A
8:50 AM59 °FBroken clouds.15 mph88%30.01 "HgN/A
8:20 AM59 °FBroken clouds.15 mph88%30.01 "HgN/A
7:50 AM57 °FPartly sunny.15 mph88%30.01 "HgN/A
7:20 AM57 °FBroken clouds.15 mph88%30.01 "HgN/A
6:50 AM57 °FPassing clouds.17 mph82%30.01 "HgN/A
6:20 AM57 °FPassing clouds.17 mph82%30.01 "HgN/A
5:50 AM57 °FPassing clouds.15 mph82%30.01 "HgN/A
5:20 AM55 °FPartly cloudy.14 mph88%30.04 "HgN/A
4:50 AM55 °FPassing clouds.13 mph88%30.04 "HgN/A
4:20 AM55 °FClear.13 mph88%30.04 "Hg10 mi
3:50 AM55 °FClear.14 mph88%30.04 "Hg10 mi
3:20 AM55 °FClear.14 mph88%30.07 "Hg10 mi
2:50 AM55 °FClear.12 mph88%30.07 "Hg10 mi
2:20 AM55 °FClear.10 mph94%30.07 "Hg10 mi
1:50 AM55 °FClear.9 mph94%30.07 "Hg10 mi
1:20 AM55 °FClear.9 mph94%30.07 "Hg10 mi
12:50 AM55 °FClear.10 mph94%30.07 "Hg10 mi
12:20 AM55 °FClear.9 mph94%30.09 "Hg10 mi
11:50 PM
Mon, Sep 26
55 °FClear.12 mph94%30.09 "Hg10 mi
11:20 PM57 °FClear.10 mph88%30.09 "Hg10 mi
10:50 PM55 °FPassing clouds.10 mph94%30.09 "HgN/A
10:20 PM55 °FMostly cloudy.8 mph100%30.09 "Hg4 mi
9:50 PM55 °FRain. Partly cloudy.8 mph100%30.09 "Hg3 mi
9:20 PM55 °FRain. Passing clouds.10 mph94%30.09 "Hg4 mi
8:50 PM55 °FRain. Passing clouds.10 mph100%30.09 "Hg3 mi
8:20 PM55 °FHeavy rain. Partly cloudy.7 mph100%30.09 "Hg1 mi
7:50 PM55 °FRain. Passing clouds.10 mph100%30.09 "Hg3 mi
7:20 PM55 °FLight rain. Passing clouds.9 mph100%30.07 "Hg4 mi
6:50 PM55 °FRain. Partly sunny.10 mph100%30.07 "Hg2 mi
6:20 PM57 °FDrizzle. Broken clouds.10 mph88%30.07 "Hg2 mi
5:50 PM57 °FPartly sunny.13 mph88%30.07 "HgN/A
5:20 PM57 °FPassing clouds.13 mph94%30.04 "HgN/A
4:50 PM57 °FScattered clouds.14 mph94%30.04 "HgN/A
4:20 PM57 °FPartly sunny.13 mph94%30.04 "HgN/A
Weather by CustomWeather, © 2016

See weather overviewHow to use our weather pages